RYR7456 EIKY-LPFR

Flight info

Callsign RYR7456
Flight time 2h 21m
Altitude 39000
Route CRK3B CRK DCT TULTA/N0442F390 DCT KORUL DCT ASPOR DCT ALAGU
Aircraft B738/M-SDE3FGILRWY/SB1

Departure

Time 2026-05-06 19:08
Airport Kerry Airport (EIKY)

Arrival

Time 2026-05-06 21:29
Airport Faro - Gago Coutinho International Airport (LPFR)
Time Latitude Longitude Altitude Speed Heading
2026-05-06 18:53 52.18093 -9.53627 90 ft 0 kts 102°
2026-05-06 19:02 52.18087 -9.53613 92 ft 4 kts 130°
2026-05-06 19:02 52.18058 -9.53611 91 ft 4 kts 188°
2026-05-06 19:02 52.18021 -9.53620 117 ft 8 kts 186°
2026-05-06 19:02 52.17948 -9.53596 115 ft 13 kts 161°
2026-05-06 19:03 52.17866 -9.53539 117 ft 13 kts 137°
2026-05-06 19:03 52.17875 -9.53402 116 ft 14 kts 72°
2026-05-06 19:03 52.17914 -9.53214 118 ft 21 kts 71°
2026-05-06 19:03 52.17965 -9.52968 115 ft 23 kts 71°
2026-05-06 19:04 52.18015 -9.52725 118 ft 22 kts 71°
2026-05-06 19:04 52.18064 -9.52488 115 ft 22 kts 71°
2026-05-06 19:04 52.18112 -9.52259 113 ft 21 kts 71°
2026-05-06 19:04 52.18158 -9.52036 118 ft 20 kts 71°
2026-05-06 19:05 52.18199 -9.51838 120 ft 18 kts 71°
2026-05-06 19:05 52.18237 -9.51653 121 ft 17 kts 71°
2026-05-06 19:05 52.18274 -9.51475 120 ft 16 kts 71°
2026-05-06 19:05 52.18313 -9.51305 120 ft 16 kts 69°
2026-05-06 19:06 52.18343 -9.51169 121 ft 8 kts 68°
2026-05-06 19:06 52.18382 -9.51050 119 ft 5 kts 113°
2026-05-06 19:06 52.18368 -9.51047 120 ft 2 kts 215°
2026-05-06 19:06 52.18363 -9.51066 119 ft 0 kts 254°
2026-05-06 19:07 52.18326 -9.51253 120 ft 53 kts 251°
2026-05-06 19:07 52.18112 -9.52280 116 ft 135 kts 251°
2026-05-06 19:08 52.17753 -9.53989 506 ft 169 kts 249°
2026-05-06 19:08 52.17338 -9.55828 1503 ft 180 kts 253°
2026-05-06 19:08 52.16935 -9.57901 2140 ft 203 kts 255°
2026-05-06 19:08 52.16533 -9.60222 2508 ft 223 kts 256°
2026-05-06 19:09 52.16097 -9.62706 3053 ft 231 kts 255°
2026-05-06 19:09 52.15640 -9.65233 3787 ft 233 kts 253°
2026-05-06 19:09 52.15121 -9.67740 4328 ft 239 kts 241°
2026-05-06 19:09 52.13950 -9.69709 4957 ft 251 kts 207°
2026-05-06 19:10 52.12241 -9.70341 5747 ft 258 kts 176°
2026-05-06 19:10 52.10467 -9.69789 6599 ft 263 kts 165°
2026-05-06 19:10 52.08702 -9.68904 7376 ft 268 kts 163°
2026-05-06 19:10 52.06918 -9.67933 8162 ft 275 kts 162°
2026-05-06 19:11 52.05081 -9.66924 8917 ft 281 kts 163°
2026-05-06 19:11 52.03203 -9.65903 9716 ft 287 kts 163°
2026-05-06 19:11 52.01286 -9.64872 10386 ft 296 kts 163°
2026-05-06 19:11 51.99243 -9.63789 10601 ft 320 kts 163°
2026-05-06 19:12 51.97816 -9.63039 10927 ft 329 kts 163°
2026-05-06 19:12 51.94872 -9.61496 11921 ft 335 kts 163°
2026-05-06 19:12 51.93423 -9.60740 12469 ft 337 kts 163°
2026-05-06 19:12 51.90433 -9.59188 13586 ft 342 kts 163°
2026-05-06 19:13 51.88928 -9.58409 14094 ft 345 kts 163°
2026-05-06 19:13 51.86621 -9.57219 14854 ft 349 kts 163°
2026-05-06 19:13 51.84299 -9.56024 15650 ft 352 kts 163°
2026-05-06 19:13 51.81956 -9.54820 16427 ft 356 kts 163°
2026-05-06 19:14 51.79577 -9.53600 17183 ft 361 kts 163°
2026-05-06 19:14 51.77171 -9.52367 17948 ft 365 kts 163°
2026-05-06 19:14 51.74738 -9.51123 18656 ft 369 kts 163°
2026-05-06 19:14 51.72278 -9.49866 19327 ft 373 kts 163°
2026-05-06 19:15 51.69792 -9.48597 19973 ft 376 kts 163°
2026-05-06 19:15 51.67283 -9.47318 20613 ft 380 kts 163°
2026-05-06 19:15 51.64752 -9.46029 21243 ft 384 kts 163°
2026-05-06 19:15 51.62185 -9.44723 21882 ft 388 kts 163°
2026-05-06 19:16 51.59596 -9.43408 22508 ft 392 kts 163°
2026-05-06 19:16 51.56981 -9.42081 23092 ft 396 kts 163°
2026-05-06 19:16 51.54344 -9.40745 23673 ft 400 kts 163°
2026-05-06 19:16 51.51676 -9.39394 24172 ft 403 kts 163°
2026-05-06 19:17 51.48990 -9.38036 24645 ft 407 kts 163°
2026-05-06 19:17 51.46321 -9.36688 25116 ft 410 kts 162°
2026-05-06 19:17 51.43544 -9.35280 25616 ft 413 kts 162°
2026-05-06 19:17 51.40798 -9.33867 26096 ft 416 kts 162°
2026-05-06 19:18 51.38069 -9.32463 26554 ft 419 kts 162°
2026-05-06 19:18 51.35243 -9.31019 27002 ft 423 kts 162°
2026-05-06 19:18 51.32426 -9.29590 27466 ft 425 kts 162°
2026-05-06 19:18 51.29637 -9.28184 27916 ft 428 kts 162°
2026-05-06 19:19 51.26798 -9.26760 28355 ft 431 kts 162°
2026-05-06 19:19 51.23891 -9.25307 28779 ft 433 kts 162°
2026-05-06 19:19 51.20998 -9.23864 29184 ft 436 kts 162°
2026-05-06 19:19 51.18091 -9.22417 29599 ft 439 kts 162°
2026-05-06 19:20 51.15206 -9.20983 29990 ft 441 kts 161°
2026-05-06 19:20 51.12234 -9.19507 30329 ft 444 kts 161°
2026-05-06 19:20 51.09274 -9.18039 30650 ft 446 kts 161°
2026-05-06 19:20 51.06339 -9.16586 30964 ft 448 kts 161°
2026-05-06 19:21 51.03357 -9.15111 31284 ft 450 kts 161°
2026-05-06 19:21 51.00320 -9.13611 31575 ft 452 kts 161°
2026-05-06 19:21 50.97314 -9.12128 31880 ft 454 kts 161°
2026-05-06 19:21 50.94287 -9.10638 32285 ft 453 kts 161°
2026-05-06 19:22 50.91296 -9.09167 32739 ft 451 kts 161°
2026-05-06 19:22 50.88296 -9.07694 33146 ft 450 kts 161°
2026-05-06 19:22 50.85308 -9.06227 33495 ft 451 kts 161°
2026-05-06 19:22 50.82312 -9.04760 33859 ft 451 kts 161°
2026-05-06 19:23 50.79308 -9.03290 34213 ft 450 kts 162°
2026-05-06 19:23 50.76329 -9.01834 34521 ft 449 kts 162°
2026-05-06 19:23 50.73342 -9.00377 34790 ft 450 kts 162°
2026-05-06 19:23 50.70343 -8.98916 35061 ft 450 kts 162°
2026-05-06 19:24 50.67362 -8.97464 35356 ft 450 kts 162°
2026-05-06 19:24 50.64369 -8.96010 35632 ft 450 kts 162°
2026-05-06 19:24 50.61367 -8.94553 35896 ft 451 kts 162°
2026-05-06 19:24 50.58369 -8.93099 36158 ft 451 kts 163°
2026-05-06 19:25 50.55333 -8.91630 36429 ft 451 kts 163°
2026-05-06 19:25 50.52338 -8.90182 36717 ft 451 kts 163°
2026-05-06 19:25 50.49330 -8.88730 36956 ft 451 kts 163°
2026-05-06 19:25 50.46329 -8.87282 37204 ft 452 kts 163°
2026-05-06 19:26 50.43325 -8.85836 37473 ft 451 kts 163°
2026-05-06 19:26 50.40322 -8.84392 37744 ft 451 kts 163°
2026-05-06 19:26 50.37328 -8.82954 37998 ft 451 kts 163°
2026-05-06 19:26 50.34331 -8.81517 38252 ft 450 kts 163°
2026-05-06 19:27 50.31333 -8.80081 38465 ft 451 kts 163°
2026-05-06 19:27 50.28328 -8.78644 38697 ft 451 kts 163°
2026-05-06 19:27 50.25329 -8.77211 38879 ft 450 kts 163°
2026-05-06 19:27 50.22334 -8.75782 38993 ft 450 kts 163°
2026-05-06 19:28 50.19331 -8.74352 39009 ft 452 kts 163°
2026-05-06 19:28 50.13290 -8.71479 39020 ft 454 kts 163°
2026-05-06 19:29 50.07257 -8.68618 39017 ft 453 kts 163°
2026-05-06 19:29 50.01222 -8.65764 39019 ft 453 kts 163°
2026-05-06 19:30 49.95201 -8.62923 39021 ft 452 kts 163°
2026-05-06 19:30 49.89179 -8.60089 39019 ft 452 kts 163°
2026-05-06 19:31 49.83175 -8.57272 39022 ft 451 kts 164°
2026-05-06 19:31 49.74161 -8.53055 39019 ft 451 kts 164°
2026-05-06 19:32 49.68160 -8.50257 39023 ft 450 kts 164°
2026-05-06 19:32 49.62162 -8.47467 39020 ft 450 kts 164°
2026-05-06 19:33 49.56172 -8.44689 39023 ft 449 kts 164°
2026-05-06 19:33 49.50182 -8.41917 39023 ft 449 kts 164°
2026-05-06 19:34 49.44201 -8.39157 39027 ft 449 kts 164°
2026-05-06 19:34 49.38209 -8.36399 39024 ft 449 kts 164°
2026-05-06 19:35 49.32218 -8.33648 39029 ft 449 kts 164°
2026-05-06 19:35 49.26233 -8.30907 39026 ft 449 kts 164°
2026-05-06 19:36 49.20239 -8.28168 39029 ft 449 kts 164°
2026-05-06 19:36 49.14255 -8.25441 39028 ft 449 kts 164°
2026-05-06 19:37 49.08258 -8.22716 39029 ft 449 kts 164°
2026-05-06 19:37 49.03272 -8.20454 39030 ft 450 kts 164°
2026-05-06 19:38 48.96265 -8.17284 39030 ft 450 kts 164°
2026-05-06 19:38 48.90263 -8.14577 39030 ft 450 kts 164°
2026-05-06 19:39 48.84268 -8.11879 39029 ft 450 kts 164°
2026-05-06 19:39 48.78269 -8.09186 39028 ft 450 kts 164°
2026-05-06 19:40 48.72272 -8.06500 39031 ft 449 kts 164°
2026-05-06 19:40 48.66270 -8.03818 39030 ft 449 kts 164°
2026-05-06 19:41 48.60279 -8.01149 39028 ft 449 kts 165°
2026-05-06 19:41 48.54131 -7.99863 39031 ft 446 kts 181°
2026-05-06 19:42 48.47931 -7.99997 39027 ft 446 kts 182°
2026-05-06 19:42 48.41737 -8.00171 39034 ft 445 kts 182°
2026-05-06 19:43 48.35541 -8.00295 39033 ft 445 kts 182°
2026-05-06 19:43 48.29344 -8.00387 39035 ft 445 kts 181°
2026-05-06 19:44 48.23153 -8.00468 39031 ft 445 kts 181°
2026-05-06 19:44 48.16957 -8.00549 39032 ft 445 kts 182°
2026-05-06 19:45 48.10771 -8.00630 39034 ft 445 kts 181°
2026-05-06 19:45 48.04579 -8.00712 39031 ft 445 kts 181°
2026-05-06 19:46 47.98395 -8.00794 39030 ft 445 kts 182°
2026-05-06 19:46 47.92202 -8.00876 39027 ft 445 kts 182°
2026-05-06 19:47 47.86060 -8.00956 39033 ft 445 kts 182°
2026-05-06 19:47 47.79872 -8.01038 39034 ft 445 kts 182°
2026-05-06 19:48 47.73684 -8.01119 39032 ft 445 kts 182°
2026-05-06 19:48 47.67496 -8.01200 39032 ft 445 kts 182°
2026-05-06 19:49 47.61311 -8.01280 39033 ft 445 kts 182°
2026-05-06 19:49 47.55119 -8.01361 39032 ft 445 kts 182°
2026-05-06 19:50 47.48933 -8.01441 39034 ft 445 kts 182°
2026-05-06 19:50 47.42743 -8.01521 39031 ft 445 kts 182°
2026-05-06 19:51 47.36552 -8.01601 39028 ft 445 kts 182°
2026-05-06 19:51 47.30363 -8.01681 39033 ft 445 kts 182°
2026-05-06 19:52 47.24167 -8.01761 39031 ft 445 kts 182°
2026-05-06 19:52 47.17979 -8.01840 39032 ft 445 kts 182°
2026-05-06 19:53 47.12830 -8.01906 39029 ft 445 kts 182°
2026-05-06 19:53 47.06640 -8.01985 39038 ft 445 kts 182°
2026-05-06 19:54 47.00439 -8.02064 39034 ft 445 kts 182°
2026-05-06 19:54 46.94247 -8.02143 39031 ft 445 kts 182°
2026-05-06 19:55 46.88057 -8.02221 39033 ft 445 kts 182°
2026-05-06 19:55 46.81864 -8.02300 39033 ft 445 kts 182°
2026-05-06 19:56 46.75675 -8.02378 39037 ft 445 kts 182°
2026-05-06 19:56 46.69477 -8.02456 39035 ft 445 kts 182°
2026-05-06 19:57 46.63290 -8.02534 39035 ft 445 kts 182°
2026-05-06 19:57 46.57101 -8.02611 39034 ft 445 kts 182°
2026-05-06 19:58 46.50926 -8.02689 39035 ft 444 kts 182°
2026-05-06 19:58 46.44733 -8.02766 39033 ft 444 kts 182°
2026-05-06 19:59 46.38552 -8.02843 39036 ft 444 kts 182°
2026-05-06 19:59 46.32379 -8.02920 39032 ft 444 kts 182°
2026-05-06 20:00 46.26186 -8.02996 39037 ft 444 kts 182°
2026-05-06 20:00 46.20006 -8.03073 39035 ft 444 kts 182°
2026-05-06 20:01 46.13822 -8.03149 39035 ft 444 kts 182°
2026-05-06 20:01 46.07635 -8.03225 39034 ft 444 kts 182°
2026-05-06 20:02 46.01452 -8.03301 39037 ft 444 kts 182°
2026-05-06 20:02 45.95275 -8.03377 39034 ft 444 kts 182°
2026-05-06 20:03 45.89083 -8.03453 39036 ft 444 kts 182°
2026-05-06 20:03 45.82907 -8.03528 39030 ft 444 kts 182°
2026-05-06 20:04 45.76721 -8.03604 39036 ft 444 kts 182°
2026-05-06 20:04 45.70534 -8.03679 39041 ft 444 kts 182°
2026-05-06 20:05 45.64357 -8.03754 39037 ft 444 kts 182°
2026-05-06 20:05 45.58170 -8.03829 39036 ft 444 kts 182°
2026-05-06 20:06 45.51996 -8.03903 39034 ft 444 kts 182°
2026-05-06 20:06 45.45806 -8.03978 39032 ft 444 kts 182°
2026-05-06 20:07 45.39629 -8.04052 39032 ft 444 kts 182°
2026-05-06 20:07 45.33455 -8.04126 39036 ft 444 kts 182°
2026-05-06 20:08 45.27277 -8.04200 39035 ft 444 kts 182°
2026-05-06 20:08 45.21100 -8.04274 39028 ft 444 kts 182°
2026-05-06 20:09 45.14926 -8.04347 39034 ft 443 kts 182°
2026-05-06 20:09 45.08761 -8.04420 39034 ft 443 kts 182°
2026-05-06 20:10 45.02586 -8.04494 39026 ft 443 kts 182°
2026-05-06 20:10 44.96415 -8.04567 39030 ft 443 kts 182°
2026-05-06 20:11 44.90249 -8.04640 39032 ft 443 kts 182°
2026-05-06 20:11 44.84083 -8.04712 39026 ft 443 kts 182°
2026-05-06 20:12 44.77914 -8.04785 39031 ft 443 kts 182°
2026-05-06 20:12 44.71742 -8.04857 39029 ft 443 kts 182°
2026-05-06 20:13 44.65574 -8.04929 39027 ft 443 kts 182°
2026-05-06 20:13 44.59406 -8.05002 39029 ft 443 kts 182°
2026-05-06 20:14 44.53239 -8.05073 39028 ft 443 kts 182°
2026-05-06 20:14 44.47069 -8.05145 39027 ft 443 kts 182°
2026-05-06 20:15 44.40897 -8.05217 39015 ft 443 kts 182°
2026-05-06 20:15 44.34736 -8.05288 39022 ft 443 kts 182°
2026-05-06 20:16 44.28560 -8.05360 39020 ft 443 kts 182°
2026-05-06 20:16 44.22395 -8.05431 39011 ft 443 kts 182°
2026-05-06 20:17 44.16230 -8.05502 39021 ft 443 kts 182°
2026-05-06 20:17 44.10069 -8.05572 39022 ft 443 kts 182°
2026-05-06 20:18 44.03910 -8.05643 39018 ft 442 kts 182°
2026-05-06 20:18 43.97757 -8.05714 39018 ft 442 kts 182°
2026-05-06 20:19 43.91568 -8.05784 39018 ft 442 kts 182°
2026-05-06 20:19 43.85429 -8.05854 39019 ft 442 kts 182°
2026-05-06 20:20 43.79313 -8.05924 39017 ft 442 kts 182°
2026-05-06 20:20 43.73177 -8.05993 39021 ft 441 kts 182°
2026-05-06 20:21 43.67037 -8.06063 39024 ft 441 kts 182°
2026-05-06 20:21 43.60893 -8.06132 39020 ft 441 kts 182°
2026-05-06 20:22 43.54749 -8.06202 39023 ft 441 kts 182°
2026-05-06 20:22 43.48601 -8.06271 39018 ft 442 kts 182°
2026-05-06 20:23 43.42460 -8.06340 39018 ft 441 kts 182°
2026-05-06 20:23 43.36320 -8.06408 39019 ft 441 kts 182°
2026-05-06 20:24 43.30183 -8.06478 39012 ft 441 kts 182°
2026-05-06 20:24 43.24043 -8.06546 39015 ft 441 kts 182°
2026-05-06 20:25 43.17915 -8.06614 39014 ft 440 kts 182°
2026-05-06 20:25 43.11781 -8.06682 39009 ft 440 kts 182°
2026-05-06 20:26 43.05657 -8.06750 38999 ft 440 kts 182°
2026-05-06 20:26 42.99534 -8.06818 38996 ft 440 kts 182°
2026-05-06 20:27 42.93416 -8.06886 38998 ft 440 kts 182°
2026-05-06 20:27 42.87296 -8.06953 38999 ft 440 kts 182°
2026-05-06 20:28 42.81175 -8.07021 38993 ft 440 kts 182°
2026-05-06 20:28 42.75054 -8.07088 38996 ft 440 kts 182°
2026-05-06 20:29 42.68933 -8.07155 38988 ft 440 kts 182°
2026-05-06 20:29 42.62816 -8.07222 38990 ft 440 kts 182°
2026-05-06 20:30 42.53629 -8.07323 38985 ft 440 kts 182°
2026-05-06 20:31 42.47509 -8.07389 38985 ft 440 kts 182°
2026-05-06 20:31 42.41389 -8.07456 38976 ft 440 kts 182°
2026-05-06 20:32 42.35271 -8.07522 38981 ft 440 kts 182°
2026-05-06 20:32 42.29151 -8.07588 38979 ft 439 kts 182°
2026-05-06 20:33 42.24077 -8.07643 38973 ft 439 kts 182°
2026-05-06 20:33 42.17972 -8.07709 38967 ft 439 kts 182°
2026-05-06 20:34 42.11864 -8.07775 38975 ft 439 kts 182°
2026-05-06 20:34 42.05758 -8.07841 38965 ft 438 kts 182°
2026-05-06 20:35 41.99655 -8.07906 38968 ft 438 kts 182°
2026-05-06 20:35 41.93570 -8.07971 38969 ft 438 kts 182°
2026-05-06 20:36 41.87474 -8.08036 38963 ft 438 kts 182°
2026-05-06 20:36 41.81384 -8.08087 38958 ft 438 kts 181°
2026-05-06 20:37 41.75298 -8.07475 38955 ft 439 kts 176°
2026-05-06 20:37 41.69211 -8.06679 38952 ft 439 kts 176°
2026-05-06 20:38 41.63135 -8.05873 38947 ft 439 kts 176°
2026-05-06 20:38 41.57044 -8.05065 38943 ft 439 kts 176°
2026-05-06 20:39 41.50968 -8.04263 38944 ft 439 kts 176°
2026-05-06 20:39 41.44903 -8.03463 38942 ft 438 kts 176°
2026-05-06 20:40 41.38834 -8.02666 38943 ft 438 kts 176°
2026-05-06 20:40 41.32778 -8.01872 38942 ft 437 kts 176°
2026-05-06 20:41 41.26722 -8.01079 38942 ft 437 kts 176°
2026-05-06 20:41 41.20668 -8.00288 38941 ft 437 kts 176°
2026-05-06 20:42 41.14629 -7.99500 38948 ft 437 kts 177°
2026-05-06 20:42 41.08577 -7.98712 38944 ft 437 kts 177°
2026-05-06 20:43 41.02571 -7.97931 38945 ft 437 kts 177°
2026-05-06 20:43 40.96480 -7.97141 38946 ft 436 kts 177°
2026-05-06 20:44 40.90482 -7.96364 38944 ft 436 kts 177°
2026-05-06 20:44 40.84437 -7.95583 38947 ft 436 kts 177°
2026-05-06 20:45 40.78390 -7.94803 38947 ft 437 kts 177°
2026-05-06 20:45 40.72336 -7.94024 38943 ft 437 kts 177°
2026-05-06 20:46 40.66274 -7.93244 38946 ft 438 kts 177°
2026-05-06 20:46 40.60213 -7.92467 38942 ft 438 kts 177°
2026-05-06 20:47 40.54146 -7.91690 38952 ft 438 kts 177°
2026-05-06 20:47 40.48076 -7.90913 38936 ft 438 kts 177°
2026-05-06 20:48 40.42014 -7.90139 38944 ft 437 kts 177°
2026-05-06 20:48 40.35955 -7.89368 38945 ft 437 kts 177°
2026-05-06 20:49 40.29909 -7.88599 38943 ft 437 kts 177°
2026-05-06 20:49 40.23849 -7.87830 38936 ft 437 kts 177°
2026-05-06 20:50 40.17806 -7.87062 38934 ft 436 kts 177°
2026-05-06 20:50 40.11767 -7.86299 38931 ft 435 kts 178°
2026-05-06 20:51 40.05745 -7.85540 38932 ft 435 kts 178°
2026-05-06 20:51 39.99713 -7.84780 38925 ft 435 kts 178°
2026-05-06 20:52 39.93683 -7.84021 38923 ft 435 kts 178°
2026-05-06 20:52 39.87655 -7.83264 38918 ft 435 kts 178°
2026-05-06 20:53 39.81623 -7.82508 38919 ft 435 kts 178°
2026-05-06 20:53 39.75585 -7.81753 38915 ft 436 kts 178°
2026-05-06 20:54 39.69548 -7.80999 38907 ft 436 kts 178°
2026-05-06 20:54 39.63514 -7.80246 38908 ft 436 kts 178°
2026-05-06 20:55 39.57479 -7.79495 38909 ft 436 kts 178°
2026-05-06 20:55 39.51447 -7.78746 38906 ft 436 kts 178°
2026-05-06 20:56 39.45410 -7.77997 38913 ft 436 kts 178°
2026-05-06 20:56 39.39385 -7.77250 38905 ft 436 kts 178°
2026-05-06 20:57 39.33373 -7.76507 38906 ft 436 kts 178°
2026-05-06 20:57 39.27343 -7.75763 38882 ft 436 kts 178°
2026-05-06 20:57 39.24297 -7.75390 38390 ft 442 kts 178°
2026-05-06 20:58 39.21243 -7.75014 37837 ft 439 kts 178°
2026-05-06 20:58 39.18212 -7.74640 37306 ft 436 kts 178°
2026-05-06 20:58 39.15210 -7.74268 36924 ft 430 kts 178°
2026-05-06 20:58 39.12248 -7.73902 36487 ft 426 kts 178°
2026-05-06 20:59 39.09314 -7.73541 36087 ft 421 kts 178°
2026-05-06 20:59 39.06417 -7.73185 35689 ft 416 kts 179°
2026-05-06 20:59 39.03546 -7.72833 35277 ft 412 kts 179°
2026-05-06 20:59 39.00702 -7.72485 34882 ft 409 kts 179°
2026-05-06 21:00 38.97883 -7.72140 34493 ft 405 kts 179°
2026-05-06 21:00 38.95089 -7.71799 34093 ft 401 kts 179°
2026-05-06 21:00 38.92328 -7.71463 33670 ft 398 kts 179°
2026-05-06 21:00 38.89578 -7.71127 33237 ft 394 kts 179°
2026-05-06 21:01 38.86872 -7.70797 32855 ft 389 kts 179°
2026-05-06 21:01 38.84185 -7.70469 32473 ft 385 kts 179°
2026-05-06 21:01 38.81534 -7.70146 32086 ft 381 kts 179°
2026-05-06 21:01 38.78911 -7.69827 31720 ft 377 kts 179°
2026-05-06 21:02 38.76304 -7.69510 31349 ft 373 kts 179°
2026-05-06 21:02 38.73732 -7.69198 30981 ft 370 kts 179°
2026-05-06 21:02 38.71181 -7.68889 30615 ft 367 kts 179°
2026-05-06 21:02 38.68646 -7.68581 30258 ft 364 kts 179°
2026-05-06 21:03 38.66141 -7.68277 29890 ft 360 kts 179°
2026-05-06 21:03 38.63657 -7.67977 29492 ft 356 kts 179°
2026-05-06 21:03 38.61205 -7.67680 29122 ft 352 kts 179°
2026-05-06 21:03 38.58785 -7.67387 28762 ft 347 kts 179°
2026-05-06 21:04 38.56396 -7.67098 28395 ft 343 kts 179°
2026-05-06 21:04 38.54032 -7.66813 28041 ft 339 kts 179°
2026-05-06 21:04 38.51694 -7.66531 27671 ft 336 kts 179°
2026-05-06 21:04 38.49379 -7.66252 27333 ft 333 kts 179°
2026-05-06 21:05 38.47082 -7.65976 26959 ft 330 kts 179°
2026-05-06 21:05 38.44804 -7.65702 26617 ft 328 kts 179°
2026-05-06 21:05 38.42545 -7.65430 26262 ft 325 kts 179°
2026-05-06 21:05 38.40298 -7.65160 25914 ft 323 kts 179°
2026-05-06 21:06 38.38064 -7.64892 25570 ft 321 kts 178°
2026-05-06 21:06 38.35847 -7.64626 25229 ft 319 kts 178°
2026-05-06 21:06 38.33642 -7.64361 24898 ft 317 kts 178°
2026-05-06 21:06 38.31448 -7.64098 24561 ft 316 kts 178°
2026-05-06 21:07 38.29265 -7.63836 24233 ft 315 kts 178°
2026-05-06 21:07 38.27090 -7.63576 23903 ft 313 kts 178°
2026-05-06 21:07 38.24921 -7.63316 23565 ft 312 kts 178°
2026-05-06 21:07 38.22761 -7.63057 23196 ft 312 kts 178°
2026-05-06 21:08 38.20606 -7.62799 22822 ft 310 kts 178°
2026-05-06 21:08 38.18467 -7.62543 22491 ft 308 kts 178°
2026-05-06 21:08 38.16347 -7.62289 22170 ft 305 kts 178°
2026-05-06 21:08 38.14238 -7.62037 21824 ft 303 kts 178°
2026-05-06 21:09 38.12144 -7.61787 21509 ft 302 kts 178°
2026-05-06 21:09 38.10049 -7.61538 21182 ft 303 kts 178°
2026-05-06 21:09 38.07932 -7.61397 20734 ft 308 kts 183°
2026-05-06 21:09 38.05773 -7.61483 20385 ft 312 kts 185°
2026-05-06 21:10 38.03598 -7.61633 20024 ft 313 kts 186°
2026-05-06 21:10 38.01453 -7.61790 19668 ft 312 kts 186°
2026-05-06 21:10 37.99296 -7.61940 19329 ft 310 kts 185°
2026-05-06 21:10 37.97126 -7.62082 18989 ft 308 kts 185°
2026-05-06 21:11 37.95019 -7.62213 18658 ft 306 kts 185°
2026-05-06 21:11 37.92868 -7.62342 18324 ft 305 kts 185°
2026-05-06 21:11 37.90755 -7.62464 17966 ft 303 kts 185°
2026-05-06 21:11 37.88655 -7.62583 17604 ft 301 kts 185°
2026-05-06 21:12 37.86597 -7.62698 17271 ft 299 kts 185°
2026-05-06 21:12 37.84503 -7.62814 16933 ft 296 kts 185°
2026-05-06 21:12 37.82473 -7.62926 16605 ft 294 kts 185°
2026-05-06 21:12 37.80438 -7.63038 16284 ft 292 kts 185°
2026-05-06 21:13 37.78411 -7.63149 15960 ft 290 kts 185°
2026-05-06 21:13 37.76398 -7.63259 15641 ft 289 kts 185°
2026-05-06 21:13 37.74394 -7.63369 15329 ft 288 kts 185°
2026-05-06 21:13 37.72402 -7.63478 15007 ft 286 kts 185°
2026-05-06 21:14 37.70415 -7.63586 14698 ft 285 kts 185°
2026-05-06 21:14 37.68430 -7.63694 14393 ft 284 kts 185°
2026-05-06 21:14 37.66464 -7.63801 14074 ft 283 kts 185°
2026-05-06 21:14 37.64495 -7.63908 13755 ft 283 kts 184°
2026-05-06 21:15 37.62533 -7.64015 13407 ft 282 kts 184°
2026-05-06 21:15 37.60579 -7.64122 13072 ft 280 kts 184°
2026-05-06 21:15 37.58635 -7.64227 12742 ft 278 kts 184°
2026-05-06 21:15 37.56706 -7.64332 12444 ft 276 kts 184°
2026-05-06 21:16 37.54796 -7.64436 12138 ft 274 kts 184°
2026-05-06 21:16 37.52895 -7.64539 11830 ft 273 kts 184°
2026-05-06 21:16 37.51001 -7.64642 11531 ft 271 kts 184°
2026-05-06 21:16 37.49118 -7.64744 11218 ft 270 kts 184°
2026-05-06 21:17 37.47249 -7.64845 10914 ft 269 kts 183°
2026-05-06 21:17 37.45383 -7.64946 10607 ft 268 kts 183°
2026-05-06 21:17 37.43527 -7.65047 10309 ft 266 kts 183°
2026-05-06 21:17 37.41684 -7.65146 10081 ft 262 kts 183°
2026-05-06 21:18 37.39895 -7.65243 9970 ft 255 kts 182°
2026-05-06 21:18 37.38124 -7.65338 9675 ft 254 kts 182°
2026-05-06 21:18 37.36955 -7.65402 9484 ft 254 kts 182°
2026-05-06 21:18 37.35194 -7.65497 9191 ft 253 kts 182°
2026-05-06 21:19 37.33436 -7.65591 8907 ft 252 kts 182°
2026-05-06 21:19 37.31772 -7.65681 8633 ft 251 kts 182°
2026-05-06 21:19 37.30028 -7.65775 8351 ft 251 kts 181°
2026-05-06 21:19 37.28284 -7.65869 8067 ft 250 kts 181°
2026-05-06 21:20 37.26548 -7.65962 7795 ft 250 kts 181°
2026-05-06 21:20 37.24810 -7.66055 7520 ft 251 kts 181°
2026-05-06 21:20 37.23044 -7.66150 7246 ft 257 kts 181°
2026-05-06 21:20 37.21232 -7.66247 6948 ft 263 kts 180°
2026-05-06 21:21 37.19415 -7.66345 6730 ft 257 kts 180°
2026-05-06 21:21 37.17687 -7.66441 6625 ft 241 kts 180°
2026-05-06 21:21 37.16028 -7.66532 6251 ft 237 kts 179°
2026-05-06 21:21 37.14395 -7.66685 5855 ft 235 kts 191°
2026-05-06 21:22 37.12931 -7.67528 5527 ft 228 kts 207°
2026-05-06 21:22 37.11566 -7.68487 5213 ft 223 kts 207°
2026-05-06 21:22 37.10206 -7.69421 4923 ft 223 kts 207°
2026-05-06 21:22 37.08839 -7.70345 4627 ft 223 kts 207°
2026-05-06 21:23 37.07468 -7.71259 4323 ft 223 kts 207°
2026-05-06 21:23 37.06098 -7.72164 4019 ft 223 kts 207°
2026-05-06 21:23 37.04737 -7.73058 3712 ft 218 kts 207°
2026-05-06 21:23 37.03413 -7.73923 3434 ft 210 kts 208°
2026-05-06 21:24 37.02153 -7.74745 3190 ft 201 kts 208°
2026-05-06 21:24 37.00939 -7.75535 3022 ft 189 kts 209°
2026-05-06 21:24 36.99792 -7.76289 2997 ft 183 kts 213°
2026-05-06 21:24 36.99057 -7.77469 2886 ft 170 kts 264°
2026-05-06 21:25 36.99101 -7.78932 2729 ft 171 kts 278°
2026-05-06 21:25 36.99204 -7.80416 2496 ft 163 kts 282°
2026-05-06 21:25 36.99359 -7.81747 2275 ft 150 kts 286°
2026-05-06 21:25 36.99527 -7.82982 2092 ft 138 kts 287°
2026-05-06 21:26 36.99694 -7.84156 1898 ft 135 kts 285°
2026-05-06 21:26 36.99851 -7.85294 1736 ft 130 kts 288°
2026-05-06 21:26 37.00006 -7.86393 1574 ft 127 kts 288°
2026-05-06 21:26 37.00165 -7.87514 1390 ft 133 kts 288°
2026-05-06 21:27 37.00323 -7.88644 1205 ft 131 kts 286°
2026-05-06 21:27 37.00480 -7.89760 1019 ft 128 kts 285°
2026-05-06 21:27 37.00632 -7.90846 850 ft 129 kts 284°
2026-05-06 21:27 37.00786 -7.91979 676 ft 130 kts 283°
2026-05-06 21:28 37.00945 -7.93089 506 ft 128 kts 282°
2026-05-06 21:28 37.01108 -7.94181 315 ft 128 kts 282°
2026-05-06 21:28 37.01262 -7.95275 140 ft 128 kts 281°
2026-05-06 21:28 37.01408 -7.96361 27 ft 121 kts 283°
2026-05-06 21:29 37.01540 -7.97295 19 ft 97 kts 279°
2026-05-06 21:29 37.01620 -7.97855 20 ft 48 kts 281°
2026-05-06 21:29 37.01730 -7.98151 25 ft 32 kts 311°
2026-05-06 21:29 37.01807 -7.98236 27 ft 12 kts 355°
2026-05-06 21:30 37.01846 -7.98130 25 ft 21 kts 99°
2026-05-06 21:30 37.01817 -7.97924 22 ft 25 kts 100°
2026-05-06 21:30 37.01788 -7.97714 20 ft 24 kts 100°
2026-05-06 21:30 37.01759 -7.97512 19 ft 23 kts 100°
2026-05-06 21:31 37.01729 -7.97319 19 ft 22 kts 101°
2026-05-06 21:31 37.01703 -7.97130 19 ft 22 kts 100°
2026-05-06 21:31 37.01678 -7.96955 19 ft 19 kts 99°
2026-05-06 21:31 37.01655 -7.96793 21 ft 19 kts 99°
2026-05-06 21:32 37.01632 -7.96641 19 ft 17 kts 100°
2026-05-06 21:32 37.01734 -7.96524 19 ft 0 kts
2026-05-06 21:33 37.01743 -7.96523 22 ft 7 kts
2026-05-06 21:33 37.01830 -7.96517 19 ft 13 kts 10°
2026-05-06 21:33 37.01864 -7.96510 18 ft 1 kts